contact:dominique.lefevre@mio.osupytheas.fr, maurice.libes@osupytheas.fr, didier.mallarino@osupytheas.fr
Project:EMSO http://www.emso-fr.org/EMSO-France
Depth: 2436.0 m
Title:EMSO Ligure Ouest : Data MII capteur AQUADOPP
Date,Latitude,Longitude,X_East,Y_North,Z_Up,Amplitude_X,Amplitude_Y,Amplitude_Z,Batterie,SoundSpeed,Heading,Pitch,Roll,Pressure,TIS,Speed,Direction
, degrees North, degrees East, m.s-1, m.s-1,m.s-1, 1, 1, 1, Volt, m.s-1, degree, degree, degree, dbar, degree_C, m.s-1, degree
2020-05-16T00:04:03,42.805,6.029,0.021,0.006,-0.022,103.0,105.0,101.0,13.3,1505.3,327.4,-0.7,1.9,2470.406,13.31,0.021,74.1
2020-05-16T00:07:04,42.805,6.029,0.048,0.002,0.01,104.0,105.0,101.0,13.4,1505.3,326.3,-0.7,1.8,2470.378,13.31,0.048,87.6
2020-05-16T00:10:03,42.805,6.029,0.028,0.021,0.005,104.0,106.0,100.0,13.3,1505.3,327.7,-0.7,1.8,2470.387,13.32,0.035,53.1
2020-05-16T00:13:03,42.805,6.029,0.023,0.021,-0.003,103.0,107.0,101.0,13.3,1505.3,326.0,-0.7,1.8,2470.385,13.32,0.031,47.6
2020-05-16T00:16:03,42.805,6.029,0.011,0.021,-0.018,104.0,106.0,101.0,13.4,1505.3,325.0,-0.7,1.8,2470.367,13.33,0.023,27.6
2020-05-16T00:19:03,42.805,6.029,0.007,0.021,-0.04,103.0,107.0,101.0,13.4,1505.3,326.6,-0.7,1.8,2470.426,13.33,0.022,18.4
2020-05-16T00:22:03,42.805,6.029,-0.007,0.011,-0.054,104.0,108.0,100.0,13.4,1505.3,326.3,-0.7,1.8,2470.373,13.33,0.013,327.5
2020-05-16T00:25:03,42.805,6.029,0.036,0.014,-0.008,104.0,106.0,100.0,13.4,1505.3,325.0,-0.7,1.9,2470.406,13.33,0.038,68.8
2020-05-16T00:28:03,42.805,6.029,0.027,0.011,-0.014,103.0,105.0,100.0,13.4,1505.3,324.2,-0.7,1.9,2470.393,13.33,0.029,67.8
2020-05-16T00:31:03,42.805,6.029,0.039,0.015,-0.002,103.0,104.0,101.0,13.4,1505.3,326.3,-0.7,1.9,2470.384,13.33,0.041,69.0
2020-05-16T00:34:03,42.805,6.029,0.052,0.001,-0.031,103.0,106.0,102.0,13.4,1505.3,328.1,-0.7,1.8,2470.422,13.33,0.052,88.9
2020-05-16T00:37:03,42.805,6.029,0.017,0.011,-0.009,104.0,104.0,101.0,13.4,1505.3,324.9,-0.7,1.8,2470.382,13.33,0.02,57.1
2020-05-16T00:40:03,42.805,6.029,0.05,0.021,0.008,103.0,104.0,101.0,13.4,1505.3,325.1,-0.7,1.8,2470.383,13.33,0.054,67.2
2020-05-16T00:43:03,42.805,6.029,0.054,0.014,-0.012,101.0,106.0,101.0,13.4,1505.3,327.9,-0.7,1.8,2470.389,13.33,0.055,75.5
2020-05-16T00:46:03,42.805,6.029,0.036,0.005,-0.002,102.0,104.0,100.0,13.4,1505.3,326.4,-0.7,1.8,2470.38,13.33,0.036,82.1
2020-05-16T00:49:03,42.805,6.029,0.064,-0.004,0.014,102.0,105.0,101.0,13.4,1505.3,327.2,-0.7,1.9,2470.401,13.33,0.064,93.6
2020-05-16T00:52:03,42.805,6.029,0.047,0.03,0.01,102.0,105.0,99.0,13.3,1505.3,327.2,-0.7,1.8,2470.407,13.33,0.055,57.4
2020-05-16T00:55:03,42.805,6.029,0.031,-0.013,-0.017,103.0,106.0,100.0,13.4,1505.3,326.4,-0.7,1.8,2470.385,13.33,0.033,112.7
2020-05-16T00:58:03,42.805,6.029,0.047,-0.007,-0.01,103.0,106.0,101.0,13.3,1505.3,323.4,-0.7,1.8,2470.429,13.33,0.047,98.5
2020-05-16T01:04:03,42.805,6.029,0.033,0.014,-0.017,103.0,106.0,103.0,13.3,1505.3,325.4,-0.7,1.8,2470.437,13.31,0.035,67.0
2020-05-16T01:07:03,42.805,6.029,0.041,0.009,-0.003,104.0,104.0,100.0,13.3,1505.3,328.6,-0.7,1.8,2470.403,13.32,0.041,77.6
2020-05-16T01:10:03,42.805,6.029,0.028,-0.003,-0.022,103.0,105.0,100.0,13.4,1505.3,327.4,-0.7,1.8,2470.469,13.32,0.028,96.1
2020-05-16T01:13:03,42.805,6.029,0.035,0.027,0.012,102.0,107.0,101.0,13.4,1505.3,325.9,-0.7,1.8,2470.424,13.32,0.044,52.3
2020-05-16T01:16:03,42.805,6.029,0.056,0.01,0.005,101.0,105.0,101.0,13.3,1505.3,328.1,-0.7,1.8,2470.422,13.33,0.056,79.9
2020-05-16T01:19:03,42.805,6.029,0.014,0.014,-0.007,102.0,106.0,101.0,13.4,1505.3,324.5,-0.7,1.8,2470.426,13.33,0.019,45.0
2020-05-16T01:22:03,42.805,6.029,0.025,0.007,-0.038,103.0,106.0,101.0,13.4,1505.3,323.9,-0.7,1.8,2470.459,13.33,0.025,74.4
2020-05-16T01:25:03,42.805,6.029,0.035,0.002,-0.04,103.0,106.0,100.0,13.4,1505.3,328.3,-0.7,1.8,2470.457,13.33,0.035,86.7
2020-05-16T01:28:03,42.805,6.029,0.018,0.003,-0.013,105.0,106.0,100.0,13.4,1505.3,323.0,-0.7,1.8,2470.411,13.33,0.018,80.5
2020-05-16T01:31:03,42.805,6.029,0.028,0.018,-0.004,103.0,106.0,101.0,13.4,1505.3,325.7,-0.7,1.8,2470.46,13.33,0.033,57.3
2020-05-16T01:34:03,42.805,6.029,0.02,0.01,-0.022,102.0,106.0,101.0,13.4,1505.3,327.9,-0.7,1.8,2470.409,13.33,0.022,63.4
2020-05-16T01:37:03,42.805,6.029,-0.006,-0.007,-0.045,102.0,106.0,101.0,13.3,1505.3,322.8,-0.7,1.8,2470.395,13.33,0.009,220.6
2020-05-16T01:40:03,42.805,6.029,-0.017,-0.004,-0.043,102.0,104.0,102.0,13.4,1505.3,324.1,-0.7,1.8,2470.433,13.33,0.017,256.8
2020-05-16T01:43:03,42.805,6.029,0.015,-0.011,-0.014,103.0,106.0,100.0,13.4,1505.3,327.2,-0.7,1.8,2470.427,13.33,0.018,126.3
2020-05-16T01:46:03,42.805,6.029,0.022,-0.013,-0.024,102.0,106.0,101.0,13.3,1505.3,327.0,-0.7,1.8,2470.433,13.33,0.025,120.6
2020-05-16T01:49:03,42.805,6.029,0.001,0.002,-0.047,104.0,107.0,101.0,13.4,1505.3,323.7,-0.7,1.9,2470.407,13.33,0.002,26.6
2020-05-16T01:52:03,42.805,6.029,0.014,0.012,-0.036,103.0,106.0,100.0,13.4,1505.3,328.2,-0.7,1.8,2470.395,13.33,0.018,49.4
2020-05-16T01:55:03,42.805,6.029,0.004,0.006,-0.016,103.0,106.0,100.0,13.4,1505.3,326.2,-0.7,1.8,2470.413,13.33,0.007,33.7
2020-05-16T01:58:03,42.805,6.029,-0.001,0.004,-0.008,102.0,106.0,101.0,13.4,1505.3,326.5,-0.7,1.8,2470.406,13.33,0.004,346.0
2020-05-16T02:04:03,42.805,6.029,0.01,-0.009,-0.018,104.0,105.0,101.0,13.3,1505.3,328.6,-0.7,1.8,2470.466,13.31,0.013,132.0
2020-05-16T02:07:03,42.805,6.029,-0.009,0.013,-0.04,104.0,105.0,101.0,13.4,1505.3,325.0,-0.7,1.9,2470.441,13.32,0.015,325.3
2020-05-16T02:10:03,42.805,6.029,0.022,-0.008,-0.025,102.0,107.0,101.0,13.4,1505.3,328.1,-0.7,1.8,2470.42,13.32,0.023,110.0
2020-05-16T02:13:03,42.805,6.029,0.015,-0.007,-0.008,104.0,105.0,101.0,13.4,1505.3,326.8,-0.7,1.8,2470.443,13.33,0.016,115.0
2020-05-16T02:16:03,42.805,6.029,-0.001,0.005,-0.057,102.0,106.0,101.0,13.4,1505.3,325.6,-0.7,1.8,2470.448,13.33,0.005,348.7
2020-05-16T02:19:03,42.805,6.029,0.02,0.005,-0.015,101.0,107.0,101.0,13.4,1505.3,324.9,-0.7,1.8,2470.426,13.33,0.02,76.0
2020-05-16T02:22:03,42.805,6.029,-0.012,0.002,-0.016,102.0,106.0,101.0,13.4,1505.3,327.6,-0.7,1.8,2470.457,13.33,0.012,279.5
2020-05-16T02:25:03,42.805,6.029,0.029,-0.013,-0.052,103.0,107.0,101.0,13.4,1505.3,326.6,-0.7,1.8,2470.443,13.33,0.031,114.1
2020-05-16T02:28:03,42.805,6.029,0.027,-0.001,-0.023,102.0,107.0,101.0,13.4,1505.3,326.0,-0.7,1.8,2470.432,13.33,0.027,92.1
2020-05-16T02:31:03,42.805,6.029,-0.005,0.015,-0.026,104.0,106.0,100.0,13.4,1505.3,325.9,-0.7,1.9,2470.418,13.33,0.015,341.6
2020-05-16T02:34:03,42.805,6.029,-0.002,0.008,-0.05,102.0,107.0,100.0,13.4,1505.3,325.9,-0.7,1.8,2470.372,13.33,0.008,346.0
2020-05-16T02:37:03,42.805,6.029,0.021,-0.004,-0.034,102.0,107.0,101.0,13.3,1505.3,327.4,-0.7,1.8,2470.411,13.33,0.021,100.8
2020-05-16T02:40:03,42.805,6.029,0.014,0.006,0.002,104.0,106.0,100.0,13.4,1505.3,325.2,-0.7,1.8,2470.39,13.33,0.015,66.8
2020-05-16T02:43:03,42.805,6.029,0.027,-0.017,-0.027,104.0,106.0,102.0,13.4,1505.3,327.2,-0.7,1.8,2470.41,13.33,0.031,122.2
2020-05-16T02:46:03,42.805,6.029,0.016,-0.003,-0.037,103.0,107.0,100.0,13.3,1505.3,325.0,-0.7,1.8,2470.431,13.33,0.016,100.6
2020-05-16T02:49:03,42.805,6.029,0.005,-0.007,-0.028,102.0,106.0,102.0,13.4,1505.3,324.3,-0.7,1.8,2470.377,13.33,0.008,144.5
2020-05-16T02:52:03,42.805,6.029,0.017,0.008,-0.045,104.0,104.0,101.0,13.3,1505.3,328.1,-0.7,1.8,2470.397,13.33,0.018,64.8
2020-05-16T02:55:03,42.805,6.029,0.037,0.0,0.0,103.0,106.0,100.0,13.3,1505.3,323.3,-0.7,1.8,2470.433,13.33,0.037,90.0
2020-05-16T02:58:03,42.805,6.029,0.007,-0.008,-0.007,103.0,105.0,101.0,13.4,1505.3,326.3,-0.7,1.9,2470.426,13.33,0.01,138.8
2020-05-16T03:04:03,42.805,6.029,0.044,0.019,-0.011,103.0,106.0,100.0,13.4,1505.3,327.0,-0.7,1.9,2470.436,13.31,0.047,66.6
2020-05-16T03:07:03,42.805,6.029,0.03,-0.016,-0.025,102.0,105.0,101.0,13.4,1505.3,327.0,-0.8,1.8,2470.412,13.32,0.034,118.1
2020-05-16T03:10:03,42.805,6.029,-0.004,0.004,-0.057,103.0,105.0,102.0,13.3,1505.3,327.0,-0.7,1.8,2470.473,13.32,0.005,315.0
2020-05-16T03:13:03,42.805,6.029,-0.024,0.007,-0.023,104.0,106.0,100.0,13.3,1505.3,324.8,-0.7,1.8,2470.426,13.33,0.025,286.3
2020-05-16T03:16:03,42.805,6.029,0.02,0.0,-0.027,103.0,106.0,101.0,13.4,1505.3,327.5,-0.7,1.8,2470.432,13.33,0.02,90.0
2020-05-16T03:19:03,42.805,6.029,0.024,-0.005,0.002,102.0,105.0,101.0,13.3,1505.3,324.0,-0.7,1.8,2470.436,13.33,0.024,101.8
2020-05-16T03:22:03,42.805,6.029,0.004,-0.005,-0.019,103.0,104.0,102.0,13.4,1505.3,326.2,-0.7,1.8,2470.419,13.33,0.006,141.3
2020-05-16T03:25:03,42.805,6.029,0.028,0.006,-0.037,104.0,105.0,100.0,13.4,1505.3,326.6,-0.7,1.8,2470.394,13.33,0.028,77.9
2020-05-16T03:28:03,42.805,6.029,-0.009,-0.009,-0.055,104.0,107.0,102.0,13.3,1505.3,324.4,-0.7,1.8,2470.407,13.33,0.012,225.0
2020-05-16T03:31:03,42.805,6.029,-0.006,0.007,-0.075,104.0,106.0,100.0,13.4,1505.3,326.6,-0.7,1.8,2470.382,13.33,0.009,319.4
2020-05-16T03:34:03,42.805,6.029,0.007,0.002,-0.033,103.0,106.0,101.0,13.4,1505.3,325.3,-0.7,1.8,2470.466,13.33,0.007,74.1
2020-05-16T03:37:03,42.805,6.029,0.044,0.017,0.027,104.0,104.0,101.0,13.4,1505.3,327.7,-0.7,1.9,2470.415,13.33,0.047,68.9
2020-05-16T03:40:03,42.805,6.029,0.037,0.007,0.0,102.0,105.0,102.0,13.3,1505.3,328.4,-0.7,1.8,2470.387,13.33,0.037,79.3
2020-05-16T03:43:03,42.805,6.029,0.067,0.009,0.022,103.0,106.0,101.0,13.4,1505.3,323.0,-0.7,1.8,2470.426,13.33,0.067,82.3
2020-05-16T03:46:03,42.805,6.029,0.082,0.021,0.04,103.0,105.0,101.0,13.4,1505.4,325.4,-0.7,1.8,2470.419,13.34,0.084,75.6
2020-05-16T03:49:03,42.805,6.029,0.08,0.011,0.044,102.0,105.0,100.0,13.4,1505.4,327.8,-0.7,1.8,2470.443,13.34,0.08,82.2
2020-05-16T03:52:03,42.805,6.029,0.041,0.0,0.008,102.0,107.0,102.0,13.3,1505.4,324.5,-0.7,1.8,2470.419,13.34,0.041,90.0
2020-05-16T03:55:03,42.805,6.029,0.036,-0.004,0.018,104.0,104.0,99.0,13.4,1505.4,323.5,-0.7,1.9,2470.389,13.34,0.036,96.3
2020-05-16T03:58:03,42.805,6.029,0.048,0.0,-0.003,106.0,107.0,102.0,13.3,1505.4,326.7,-0.7,1.8,2470.399,13.34,0.048,90.0
2020-05-16T04:04:03,42.805,6.029,0.056,0.013,0.046,103.0,106.0,100.0,13.3,1505.3,326.0,-0.7,1.8,2470.441,13.32,0.057,76.9
2020-05-16T04:07:03,42.805,6.029,0.053,0.031,0.025,102.0,106.0,99.0,13.3,1505.3,325.3,-0.7,1.8,2470.427,13.33,0.061,59.7
2020-05-16T04:10:03,42.805,6.029,0.049,0.006,0.019,104.0,106.0,100.0,13.4,1505.3,325.7,-0.7,1.8,2470.388,13.33,0.049,83.0
2020-05-16T04:13:03,42.805,6.029,0.032,0.009,0.006,102.0,104.0,101.0,13.4,1505.4,325.3,-0.7,1.8,2470.428,13.34,0.033,74.3
2020-05-16T04:16:03,42.805,6.029,0.024,0.003,-0.002,102.0,107.0,101.0,13.4,1505.4,327.8,-0.7,1.8,2470.428,13.34,0.024,82.9
2020-05-16T04:19:03,42.805,6.029,0.031,0.027,0.034,102.0,108.0,102.0,13.4,1505.4,324.2,-0.8,1.8,2470.414,13.34,0.041,48.9
2020-05-16T04:22:03,42.805,6.029,0.044,0.025,-0.013,102.0,106.0,102.0,13.3,1505.4,323.9,-0.7,1.8,2470.419,13.34,0.05,60.4
2020-05-16T04:25:03,42.805,6.029,0.017,0.019,-0.03,104.0,107.0,101.0,13.4,1505.4,327.6,-0.7,1.8,2470.387,13.34,0.025,41.8
2020-05-16T04:28:03,42.805,6.029,0.006,0.016,-0.007,104.0,107.0,101.0,13.4,1505.4,325.0,-0.7,1.9,2470.418,13.34,0.017,20.6
2020-05-16T04:31:03,42.805,6.029,0.015,0.006,-0.025,104.0,106.0,100.0,13.4,1505.4,324.4,-0.8,1.8,2470.419,13.34,0.016,68.2
2020-05-16T04:34:03,42.805,6.029,0.015,0.017,-0.012,103.0,107.0,101.0,13.3,1505.4,328.2,-0.7,1.8,2470.395,13.34,0.022,41.4
2020-05-16T04:37:03,42.805,6.029,0.033,0.004,-0.014,103.0,108.0,101.0,13.4,1505.4,325.7,-0.7,1.9,2470.441,13.34,0.033,83.1
2020-05-16T04:40:03,42.805,6.029,0.002,-0.003,-0.024,104.0,107.0,101.0,13.4,1505.4,325.1,-0.7,1.8,2470.4,13.34,0.003,146.3
2020-05-16T04:43:03,42.805,6.029,0.03,0.029,0.0,102.0,106.0,101.0,13.4,1505.4,325.2,-0.7,1.8,2470.397,13.34,0.041,46.0
2020-05-16T04:46:03,42.805,6.029,0.053,0.013,-0.006,103.0,109.0,99.0,13.3,1505.4,325.3,-0.7,1.8,2470.392,13.34,0.054,76.2
2020-05-16T04:49:03,42.805,6.029,-0.009,0.013,-0.026,102.0,106.0,99.0,13.3,1505.4,327.5,-0.7,1.8,2470.411,13.34,0.015,325.3
2020-05-16T04:52:03,42.805,6.029,0.023,0.002,-0.011,103.0,107.0,101.0,13.3,1505.4,326.3,-0.7,1.8,2470.413,13.34,0.023,85.0
2020-05-16T04:55:03,42.805,6.029,0.024,0.014,-0.023,101.0,107.0,101.0,13.4,1505.4,328.4,-0.7,1.8,2470.421,13.34,0.027,59.7
2020-05-16T04:58:03,42.805,6.029,0.02,-0.001,0.003,102.0,107.0,100.0,13.4,1505.4,323.7,-0.7,1.8,2470.393,13.35,0.02,92.9
2020-05-16T05:04:03,42.805,6.029,0.004,0.008,-0.014,102.0,107.0,102.0,13.4,1505.3,322.7,-0.8,1.8,2470.426,13.33,0.008,26.6
2020-05-16T05:07:03,42.805,6.029,0.035,0.011,0.019,102.0,107.0,101.0,13.4,1505.4,324.6,-0.7,1.8,2470.455,13.34,0.036,72.6
2020-05-16T05:10:03,42.805,6.029,-0.013,0.036,-0.035,103.0,108.0,102.0,13.4,1505.4,328.5,-0.7,1.8,2470.406,13.34,0.038,340.1
2020-05-16T05:13:03,42.805,6.029,0.021,0.007,-0.007,102.0,109.0,103.0,13.4,1505.4,323.5,-0.7,1.8,2470.426,13.34,0.022,71.6
2020-05-16T05:16:03,42.805,6.029,0.013,0.019,-0.026,103.0,106.0,102.0,13.3,1505.4,325.7,-0.7,1.8,2470.397,13.34,0.023,34.4
2020-05-16T05:19:03,42.805,6.029,0.012,0.01,-0.017,103.0,110.0,100.0,13.3,1505.4,326.6,-0.7,1.8,2470.427,13.34,0.015,50.2
2020-05-16T05:22:03,42.805,6.029,-0.005,-0.016,-0.024,101.0,109.0,101.0,13.4,1505.4,325.8,-0.7,1.8,2470.46,13.35,0.016,197.4
2020-05-16T05:25:03,42.805,6.029,0.025,0.007,-0.015,103.0,107.0,101.0,13.3,1505.4,324.3,-0.7,1.8,2470.41,13.35,0.025,74.4
2020-05-16T05:28:03,42.805,6.029,-0.002,0.017,0.007,103.0,109.0,100.0,13.3,1505.4,325.5,-0.7,1.8,2470.402,13.35,0.017,353.3
2020-05-16T05:31:03,42.805,6.029,0.003,0.004,-0.026,101.0,107.0,100.0,13.4,1505.4,326.3,-0.7,1.8,2470.385,13.35,0.005,36.9
2020-05-16T05:34:03,42.805,6.029,0.003,-0.002,-0.029,103.0,107.0,99.0,13.3,1505.4,326.3,-0.7,1.8,2470.431,13.35,0.003,123.7
2020-05-16T05:37:03,42.805,6.029,0.003,0.02,0.015,102.0,107.0,101.0,13.3,1505.4,325.1,-0.7,1.8,2470.39,13.35,0.02,8.5
2020-05-16T05:40:03,42.805,6.029,-0.004,0.016,-0.03,103.0,106.0,102.0,13.4,1505.4,324.0,-0.7,1.8,2470.393,13.35,0.016,346.0
2020-05-16T05:43:03,42.805,6.029,0.005,0.035,0.005,104.0,108.0,102.0,13.3,1505.4,326.8,-0.7,1.8,2470.414,13.35,0.035,8.1
2020-05-16T05:46:03,42.805,6.029,0.028,-0.004,-0.005,103.0,106.0,101.0,13.3,1505.4,325.4,-0.7,1.8,2470.373,13.35,0.028,98.1
2020-05-16T05:49:03,42.805,6.029,0.01,0.013,-0.024,105.0,108.0,103.0,13.4,1505.4,324.6,-0.7,1.8,2470.377,13.35,0.016,37.6
2020-05-16T05:52:03,42.805,6.029,0.005,0.007,-0.02,103.0,106.0,102.0,13.4,1505.4,325.5,-0.8,1.8,2470.4,13.35,0.008,35.5
2020-05-16T05:55:03,42.805,6.029,0.022,0.002,-0.007,103.0,106.0,101.0,13.4,1505.4,327.4,-0.7,1.8,2470.364,13.35,0.022,84.8
2020-05-16T05:58:03,42.805,6.029,0.008,0.016,-0.006,104.0,108.0,100.0,13.4,1505.4,325.9,-0.7,1.8,2470.359,13.35,0.017,26.6
2020-05-16T06:04:03,42.805,6.029,0.022,0.019,-0.021,106.0,107.0,100.0,13.4,1505.3,323.4,-0.8,1.8,2470.398,13.33,0.029,49.2
2020-05-16T06:07:03,42.805,6.029,0.015,0.005,-0.007,104.0,108.0,99.0,13.4,1505.4,326.9,-0.7,1.9,2470.439,13.34,0.015,71.6
2020-05-16T06:10:03,42.805,6.029,0.001,0.01,-0.011,108.0,106.0,102.0,13.4,1505.4,324.6,-0.7,1.8,2470.376,13.34,0.01,5.7
2020-05-16T06:13:03,42.805,6.029,0.014,0.008,-0.005,102.0,107.0,101.0,13.4,1505.4,327.1,-0.7,1.8,2470.389,13.34,0.016,60.3
2020-05-16T06:16:03,42.805,6.029,0.034,0.028,0.017,103.0,106.0,101.0,13.4,1505.4,324.0,-0.7,1.8,2470.375,13.35,0.044,50.5
2020-05-16T06:19:03,42.805,6.029,0.048,0.01,-0.018,103.0,106.0,100.0,13.4,1505.4,325.7,-0.7,1.9,2470.358,13.35,0.049,78.2
2020-05-16T06:22:03,42.805,6.029,0.003,0.039,-0.026,104.0,107.0,101.0,13.3,1505.4,323.0,-0.7,1.9,2470.355,13.35,0.039,4.4
2020-05-16T06:25:03,42.805,6.029,0.023,0.0,-0.032,103.0,107.0,102.0,13.4,1505.4,327.1,-0.7,1.8,2470.361,13.35,0.023,90.0
2020-05-16T06:28:03,42.805,6.029,0.024,0.017,0.006,104.0,106.0,101.0,13.3,1505.4,326.9,-0.7,1.8,2470.34,13.35,0.029,54.7
2020-05-16T06:31:03,42.805,6.029,0.029,0.021,-0.008,101.0,107.0,100.0,13.4,1505.4,323.6,-0.7,1.8,2470.388,13.35,0.035,54.1
2020-05-16T06:34:03,42.805,6.029,0.058,0.012,0.004,103.0,107.0,101.0,13.4,1505.4,326.8,-0.7,1.8,2470.399,13.35,0.059,78.3
2020-05-16T06:37:03,42.805,6.029,0.034,0.009,0.005,102.0,107.0,101.0,13.3,1505.4,327.0,-0.7,1.8,2470.379,13.35,0.035,75.2
2020-05-16T06:40:03,42.805,6.029,0.013,0.0,-0.001,103.0,106.0,102.0,13.4,1505.4,326.6,-0.7,1.8,2470.35,13.35,0.013,90.0
2020-05-16T06:43:03,42.805,6.029,0.018,0.013,0.018,103.0,108.0,100.0,13.4,1505.4,324.5,-0.7,1.8,2470.333,13.35,0.022,54.2
2020-05-16T06:46:03,42.805,6.029,0.019,0.034,0.03,101.0,107.0,100.0,13.4,1505.4,323.2,-0.7,1.8,2470.417,13.35,0.038,29.2
2020-05-16T06:49:03,42.805,6.029,0.014,0.011,-0.032,106.0,107.0,100.0,13.4,1505.4,325.1,-0.7,1.8,2470.364,13.35,0.017,51.8
2020-05-16T06:52:03,42.805,6.029,0.028,0.022,-0.001,103.0,109.0,102.0,13.4,1505.4,326.0,-0.7,1.8,2470.386,13.35,0.035,51.8
2020-05-16T06:55:02,42.805,6.029,0.031,0.02,0.009,102.0,106.0,101.0,13.4,1505.4,326.2,-0.7,1.8,2470.36,13.35,0.036,57.2
2020-05-16T06:58:03,42.805,6.029,0.013,0.024,-0.033,105.0,106.0,100.0,13.4,1505.4,327.7,-0.7,1.8,2470.346,13.35,0.027,28.4
2020-05-16T07:04:03,42.805,6.029,0.001,0.024,-0.001,104.0,107.0,101.0,13.3,1505.3,324.9,-0.7,1.8,2470.401,13.33,0.024,2.4
2020-05-16T07:07:03,42.805,6.029,0.023,0.008,-0.04,102.0,107.0,100.0,13.4,1505.4,325.3,-0.7,1.8,2470.383,13.34,0.024,70.8
2020-05-16T07:10:02,42.805,6.029,0.023,0.024,-0.037,103.0,108.0,99.0,13.4,1505.4,325.7,-0.7,1.8,2470.366,13.34,0.033,43.8
2020-05-16T07:13:03,42.805,6.029,0.009,0.001,0.004,102.0,107.0,108.0,13.4,1505.4,324.1,-0.7,1.8,2470.369,13.34,0.009,83.7
2020-05-16T07:16:03,42.805,6.029,0.015,0.008,-0.011,104.0,106.0,101.0,13.4,1505.4,326.4,-0.7,1.9,2470.367,13.34,0.017,61.9
2020-05-16T07:19:03,42.805,6.029,-0.002,0.017,-0.026,101.0,108.0,101.0,13.3,1505.4,328.6,-0.7,1.8,2470.378,13.35,0.017,353.3
2020-05-16T07:22:03,42.805,6.029,0.025,0.011,-0.014,103.0,108.0,101.0,13.4,1505.4,328.3,-0.7,1.8,2470.353,13.35,0.027,66.3
2020-05-16T07:25:03,42.805,6.029,0.036,0.004,-0.003,101.0,109.0,102.0,13.4,1505.4,327.6,-0.7,1.8,2470.377,13.35,0.036,83.7
2020-05-16T07:28:02,42.805,6.029,0.02,0.01,-0.044,105.0,108.0,100.0,13.4,1505.4,325.0,-0.7,1.8,2470.309,13.35,0.022,63.4
2020-05-16T07:31:03,42.805,6.029,0.039,0.016,-0.017,103.0,106.0,101.0,13.3,1505.4,326.0,-0.7,1.9,2470.324,13.35,0.042,67.7
2020-05-16T07:34:02,42.805,6.029,0.047,0.023,0.005,103.0,105.0,100.0,13.3,1505.4,325.8,-0.7,1.8,2470.32,13.35,0.052,63.9
2020-05-16T07:37:02,42.805,6.029,0.024,0.012,0.0,104.0,106.0,101.0,13.4,1505.4,325.5,-0.7,1.8,2470.343,13.35,0.026,63.4
2020-05-16T07:40:02,42.805,6.029,0.0,0.023,-0.027,103.0,108.0,101.0,13.4,1505.4,326.6,-0.7,1.8,2470.32,13.35,0.023,0.0
2020-05-16T07:43:02,42.805,6.029,0.025,0.028,0.009,106.0,107.0,101.0,13.4,1505.4,326.7,-0.7,1.8,2470.287,13.35,0.037,41.8
2020-05-16T07:46:02,42.805,6.029,0.03,0.023,0.003,104.0,107.0,100.0,13.4,1505.4,327.1,-0.7,1.8,2470.312,13.35,0.037,52.5
2020-05-16T07:49:02,42.805,6.029,0.037,0.036,0.021,103.0,108.0,100.0,13.3,1505.4,328.4,-0.7,1.8,2470.345,13.35,0.051,45.8
2020-05-16T07:52:03,42.805,6.029,0.027,0.017,-0.015,103.0,106.0,100.0,13.4,1505.4,323.2,-0.7,1.8,2470.297,13.35,0.031,57.8
2020-05-16T07:55:02,42.805,6.029,0.016,0.013,-0.007,103.0,106.0,101.0,13.3,1505.4,324.3,-0.7,1.9,2470.37,13.35,0.02,50.9
2020-05-16T07:58:02,42.805,6.029,0.02,0.032,0.002,105.0,107.0,101.0,13.3,1505.4,326.7,-0.7,1.8,2470.312,13.35,0.037,32.0
2020-05-16T08:04:02,42.805,6.029,0.006,0.009,-0.009,103.0,108.0,100.0,13.3,1505.3,325.9,-0.7,1.8,2470.3,13.33,0.01,33.7
2020-05-16T08:07:02,42.805,6.029,0.005,0.023,-0.007,106.0,109.0,101.0,13.3,1505.4,328.7,-0.7,1.8,2470.368,13.34,0.023,12.3
2020-05-16T08:10:02,42.805,6.029,0.028,0.021,-0.006,102.0,106.0,101.0,13.4,1505.4,326.1,-0.7,1.8,2470.307,13.34,0.035,53.1
2020-05-16T08:13:02,42.805,6.029,0.007,0.008,-0.01,102.0,106.0,100.0,13.4,1505.4,324.2,-0.7,1.8,2470.356,13.35,0.01,41.2
2020-05-16T08:16:02,42.805,6.029,0.031,0.02,0.011,104.0,106.0,102.0,13.4,1505.4,326.6,-0.7,1.8,2470.286,13.35,0.036,57.2
2020-05-16T08:19:02,42.805,6.029,0.044,0.02,0.0,105.0,107.0,101.0,13.4,1505.4,325.8,-0.7,1.8,2470.321,13.35,0.048,65.6
2020-05-16T08:22:02,42.805,6.029,0.012,0.01,0.011,104.0,106.0,100.0,13.3,1505.4,328.3,-0.7,1.8,2470.32,13.35,0.015,50.2
2020-05-16T08:25:02,42.805,6.029,0.023,0.012,0.01,104.0,105.0,101.0,13.4,1505.4,324.9,-0.7,1.8,2470.315,13.35,0.025,62.4
2020-05-16T08:28:02,42.805,6.029,0.003,0.007,-0.011,104.0,106.0,100.0,13.4,1505.4,324.2,-0.7,1.9,2470.261,13.35,0.007,23.2
2020-05-16T08:31:02,42.805,6.029,0.017,-0.004,0.005,105.0,106.0,102.0,13.3,1505.4,324.7,-0.7,1.8,2470.295,13.35,0.017,103.2
2020-05-16T08:34:02,42.805,6.029,0.012,0.022,-0.006,104.0,108.0,100.0,13.3,1505.4,328.3,-0.7,1.9,2470.312,13.35,0.025,28.6
2020-05-16T08:37:02,42.805,6.029,0.032,0.032,0.007,102.0,106.0,101.0,13.4,1505.4,326.2,-0.7,1.8,2470.287,13.35,0.045,45.0
2020-05-16T08:43:02,42.805,6.029,0.015,0.033,0.0,102.0,107.0,101.0,13.4,1505.3,327.9,-0.8,1.8,2470.316,13.33,0.036,24.4
2020-05-16T08:46:02,42.805,6.029,0.01,0.02,-0.013,103.0,109.0,101.0,13.3,1505.4,325.2,-0.7,1.9,2470.348,13.34,0.022,26.6
2020-05-16T08:49:02,42.805,6.029,0.037,0.02,0.008,104.0,107.0,101.0,13.4,1505.4,326.7,-0.7,1.8,2470.33,13.34,0.042,61.6
2020-05-16T08:52:02,42.805,6.029,0.033,0.028,-0.018,103.0,108.0,102.0,13.4,1505.4,323.1,-0.7,1.9,2470.318,13.35,0.043,49.7
2020-05-16T08:55:02,42.805,6.029,0.056,0.02,0.025,102.0,108.0,101.0,13.4,1505.4,324.5,-0.8,1.9,2470.325,13.35,0.059,70.4
2020-05-16T08:58:02,42.805,6.029,0.001,0.028,-0.018,106.0,108.0,101.0,13.4,1505.4,326.2,-0.7,1.8,2470.296,13.35,0.028,2.0
2020-05-16T09:04:02,42.805,6.029,0.021,0.041,-0.054,103.0,107.0,100.0,13.4,1505.3,326.5,-0.7,1.8,2470.329,13.33,0.046,27.1
2020-05-16T09:07:02,42.805,6.029,0.015,0.007,-0.014,104.0,107.0,99.0,13.3,1505.4,327.0,-0.7,1.9,2470.353,13.34,0.016,65.0
2020-05-16T09:10:02,42.805,6.029,0.01,0.0,0.012,103.0,108.0,105.0,13.4,1505.4,327.9,-0.7,1.9,2470.342,13.34,0.01,90.0
2020-05-16T09:13:02,42.805,6.029,0.015,0.01,0.01,103.0,107.0,99.0,13.4,1505.4,324.3,-0.7,1.8,2470.368,13.34,0.018,56.3
2020-05-16T09:16:02,42.805,6.029,0.013,0.019,-0.036,102.0,108.0,100.0,13.4,1505.4,328.4,-0.7,1.8,2470.3,13.35,0.023,34.4
2020-05-16T09:19:02,42.805,6.029,0.007,0.021,-0.004,103.0,107.0,101.0,13.4,1505.4,326.5,-0.7,1.8,2470.285,13.35,0.022,18.4
2020-05-16T09:22:02,42.805,6.029,0.018,0.037,-0.006,103.0,108.0,100.0,13.3,1505.4,327.2,-0.7,1.8,2470.343,13.35,0.041,25.9
2020-05-16T09:25:02,42.805,6.029,0.016,0.009,-0.036,103.0,107.0,101.0,13.4,1505.4,326.9,-0.7,1.9,2470.352,13.35,0.018,60.6
2020-05-16T09:28:02,42.805,6.029,0.054,0.026,0.027,102.0,106.0,99.0,13.3,1505.4,327.6,-0.7,1.8,2470.313,13.35,0.059,64.3
2020-05-16T09:31:02,42.805,6.029,0.022,0.007,-0.034,103.0,105.0,103.0,13.4,1505.4,323.4,-0.7,1.9,2470.317,13.35,0.023,72.4
2020-05-16T09:34:02,42.805,6.029,0.018,0.016,-0.001,104.0,107.0,100.0,13.4,1505.4,326.0,-0.7,1.8,2470.28,13.35,0.024,48.4
2020-05-16T09:37:02,42.805,6.029,0.021,0.005,-0.024,105.0,107.0,101.0,13.4,1505.4,327.9,-0.7,1.8,2470.311,13.35,0.021,76.6
2020-05-16T09:40:02,42.805,6.029,0.023,0.004,-0.025,104.0,107.0,100.0,13.3,1505.4,326.1,-0.7,1.8,2470.309,13.35,0.023,80.1
2020-05-16T09:43:02,42.805,6.029,0.019,0.031,-0.019,102.0,107.0,100.0,13.4,1505.4,323.2,-0.7,1.8,2470.28,13.35,0.036,31.5
2020-05-16T09:46:02,42.805,6.029,0.016,0.035,-0.001,101.0,107.0,103.0,13.4,1505.4,325.2,-0.7,1.8,2470.275,13.35,0.038,24.6
2020-05-16T09:49:02,42.805,6.029,0.046,0.02,-0.015,102.0,107.0,100.0,13.4,1505.4,326.5,-0.7,1.8,2470.302,13.35,0.05,66.5
2020-05-16T09:52:02,42.805,6.029,0.043,0.0,-0.025,101.0,106.0,100.0,13.3,1505.4,328.1,-0.7,1.8,2470.294,13.35,0.043,90.0
2020-05-16T09:55:02,42.805,6.029,0.056,0.008,-0.006,102.0,106.0,101.0,13.4,1505.4,325.0,-0.7,1.9,2470.284,13.35,0.056,81.9
2020-05-16T09:58:02,42.805,6.029,0.035,0.016,0.029,103.0,107.0,101.0,13.4,1505.4,324.0,-0.7,1.9,2470.344,13.35,0.038,65.4
2020-05-16T10:04:02,42.805,6.029,0.018,0.02,-0.014,103.0,107.0,100.0,13.4,1505.3,328.1,-0.7,1.8,2470.349,13.33,0.026,42.0
2020-05-16T10:07:02,42.805,6.029,0.063,0.006,0.014,103.0,105.0,101.0,13.4,1505.3,324.5,-0.7,1.8,2470.309,13.33,0.063,84.6